Location: Fort Worth, Tx
(32.7431°N, 97.3695°W)
Time: 14:57:30
(UTC-04:00)

Transit 2A - Pass Details

Date: 25 February 2024
Orbit: 596 x 956 km, 66.7° (Epoch: 21 April)

Event Time Altitude Azimuth Distance (km) Brightness Sun altitude
Rises 21:24:07 0° 236° (SW) 2,891 9.7 -26.1°
Reaches altitude 10° 21:26:50 10° 252° (WSW) 1,956 8.9 -26.7°
Maximum altitude 21:30:13 22° 303° (WNW) 1,330 7.8 -27.4°
Drops below altitude 10° 21:33:34 10° 355° (N) 1,934 8.2 -28.1°
Enters shadow 21:33:42 10° 356° (N) 1,971 8.2 -28.1°
